sat.trackr.live / text

‹ back to catalog

STARLINK-31731

NORAD 59498 · 2024-071Q

PAYLOAD ACTIVE UNKNOWN

§ Identity

Operator
Country
US
Launch date
2024-04-13
Launch site
AFETR
Launch vehicle
Mass (kg)
RCS (m²)

Purposes: comms

External: N2YO · Heavens-Above · Gunter

§ Orbital elements

Epoch: 2026-05-24T18:16:42.739392Z

Period
94.27 min
Inclination
42.9999°
Eccentricity
0.0001225
Mean motion
15.27579517 rev/d
Perigee alt
482.2 km
Apogee alt
483.9 km
Semi-major
6,861.2 km
B*
-1.9572e-6
RAAN
269.8012°
Arg perigee
270.8254°
Mean anomaly
89.2458°
Rev number
11,984

§ Raw data

STARLINK-317311 59498U 24071Q   26144.76160578 -.00000316  00000+0 -19572-5 0  99962 59498  42.9999 269.8012 0001225 270.8254  89.2458 15.27579517119843

JSON: /api/v1/satellites/59498 · /tle

For live sub-satellite position, see the globe view (requires WebGL).

§ Visibility from observer

Set your observer location to see the next 7 days of passes ≥ 10°. The values pass through the URL so the page stays shareable.

No JS? Fill the form by hand. The geolocation button needs JavaScript.